Weather History for KSLE - August, 2014

Change the Weather History Date:

Monday, August 18, 2014

  Actual Average Record
Temperature  
Mean Temperature 77 °F 68 °F  
Max Temperature 93 °F 82 °F 97 °F (1967)
Min Temperature 60 °F 53 °F 41 °F (1973)
Degree Days  
Heating Degree Days 0 1  
Month to date heating degree days 0 15  
Since 1 June heating degree days 69 175  
Since 1 July heating degree days 3 45  
Cooling Degree Days 12 3  
Month to date cooling degree days 162 69  
Year to date cooling degree days 439 215  
Since 1 June cooling degree days 423 206  
Growing Degree Days 26 (Base 50)    
Moisture  
Dew Point 57 °F    
Average Humidity 58    
Maximum Humidity 84    
Minimum Humidity 32    
Precipitation  
Precipitation 0.00 in 0.02 in 0.51 in (1926)
Month to date precipitation 0.28 0.19  
Year to date precipitation 22.75 21.74  
Sea Level Pressure  
Sea Level Pressure 29.88 in    
Wind  
Wind Speed 6 mph (NNW)    
Max Wind Speed 14 mph    
Max Gust Speed 16 mph    
Visibility 10 miles    
Events      
T = Trace of Precipitation, MM = Missing Value Source: NWS Daily Summary

Daily Weather History Graph

Daily Weather History Graph

Search for Another Location

Airport or City:

Trip Planner

Search our weather history database for the weather conditions in past years. The results will help you decide how hot, cold, wet, or windy it might be!

Date:

Astronomy

Aug. 18, 2014 Rise Set
Actual Time 6:17 AM PDT 8:13 PM PDT
Civil Twilight 5:46 AM PDT 8:44 PM PDT
Nautical Twilight 5:07 AM PDT 9:23 PM PDT
Astronomical Twilight 4:24 AM PDT 10:05 PM PDT
Moon 12:25 AM PDT (8/18) 3:25 PM PDT (8/18)
Length of Visible Light 14h 58m
Length of Day
13h 55m
Last Quarter, 37% of the Moon is Illuminated
Aug 18
Last Quarter
Aug 25
New
Sep 2
First Quarter
Sep 8
Full
Sep 15
Last Quarter

Hourly Weather History & Observations

Time (PDT) Temp. Heat Index Dew Point Humidity Pressure Visibility Wind Dir Wind Speed Gust Speed Precip Events Conditions
12:56 AM 66.9 °F - 55.9 °F 68% 29.97 in 10.0 mi NNW 6.9 mph - N/A   Clear
1:56 AM 64.9 °F - 55.0 °F 70% 29.96 in 10.0 mi North 6.9 mph - N/A   Partly Cloudy
2:56 AM 64.0 °F - 55.0 °F 73% 29.96 in 10.0 mi Calm Calm - N/A   Clear
3:56 AM 66.0 °F - 55.0 °F 68% 29.95 in 10.0 mi North 4.6 mph - N/A   Clear
4:56 AM 62.1 °F - 55.0 °F 78% 29.95 in 10.0 mi Calm Calm - N/A   Clear
5:56 AM 62.1 °F - 55.0 °F 78% 29.95 in 10.0 mi Calm Calm - N/A   Clear
6:56 AM 61.0 °F - 55.0 °F 81% 29.96 in 10.0 mi NW 4.6 mph - N/A   Clear
7:56 AM 66.0 °F - 55.9 °F 70% 29.96 in 10.0 mi Calm Calm - N/A   Clear
8:56 AM 68.0 °F - 55.9 °F 65% 29.96 in 10.0 mi NNE 6.9 mph - N/A   Clear
9:56 AM 72.0 °F - 57.0 °F 59% 29.94 in 10.0 mi North 8.1 mph - N/A   Clear
10:56 AM 75.0 °F - 57.9 °F 55% 29.93 in 10.0 mi North 10.4 mph - N/A   Clear
11:56 AM 78.1 °F - 57.9 °F 50% 29.91 in 10.0 mi North 4.6 mph - N/A   Clear
12:56 PM 82.0 °F 82.1 °F 59.0 °F 45% 29.88 in 10.0 mi NNE 5.8 mph - N/A   Clear
1:56 PM 84.9 °F 84.4 °F 59.0 °F 41% 29.86 in 10.0 mi North - - N/A   Clear
2:56 PM 88.0 °F 87.1 °F 59.0 °F 37% 29.83 in 10.0 mi North 6.9 mph - N/A   Clear
3:56 PM 90.0 °F 89.1 °F 59.0 °F 35% 29.81 in 10.0 mi North 4.6 mph - N/A   Clear
4:56 PM 91.9 °F 90.8 °F 57.9 °F 32% 29.79 in 10.0 mi North 10.4 mph - N/A   Clear
5:56 PM 91.9 °F 90.8 °F 57.9 °F 32% 29.77 in 10.0 mi North 8.1 mph - N/A   Clear
6:56 PM 89.1 °F 88.8 °F 60.1 °F 38% 29.76 in 10.0 mi NW 12.7 mph - N/A   Clear
7:56 PM 82.9 °F 83.2 °F 60.1 °F 46% 29.77 in 10.0 mi WNW 11.5 mph - N/A   Clear
9:56 PM 77.0 °F - 59.0 °F 54% 29.80 in 10.0 mi NW 6.9 mph - N/A   Clear
10:56 PM 75.9 °F - 59.0 °F 56% 29.81 in 10.0 mi Calm Calm - N/A   Clear
11:56 PM 73.0 °F - 57.9 °F 59% 29.80 in 10.0 mi WNW 5.8 mph - N/A   Clear